Bedford, MA

6:56 PM EDT on September 27, 2016 (GMT -0400)
Hanscom

Weather History for KBED - December, 2011

Change the Weather History Date:

Friday, December 16, 2011

  Actual Average Record
Temperature  
Mean Temperature 44 °F -  
Max Temperature 52 °F 39 °F 62 °F (1971)
Min Temperature 35 °F 21 °F 2 °F (1970)
Degree Days  
Heating Degree Days 21    
Moisture  
Dew Point 32 °F    
Average Humidity 64    
Maximum Humidity 86    
Minimum Humidity 43    
Precipitation  
Precipitation 0.03 in - - ()
Sea Level Pressure  
Sea Level Pressure 29.91 in    
Wind  
Wind Speed 13 mph (West)    
Max Wind Speed 28 mph    
Max Gust Speed 40 mph    
Visibility 10 miles    
Events Rain    
Averages and records for this station are not official NWS values.
T = Trace of Precipitation, MM = Missing Value Source: NWS Daily Summary

Daily Weather History Graph

Daily Weather History Graph

Search for Another Location

Airport or City:

Trip Planner

Search our weather history database for the weather conditions in past years. The results will help you decide how hot, cold, wet, or windy it might be!

Date:

Astronomy

Dec. 16, 2011 Rise Set
Actual Time 7:08 AM EST 4:13 PM EST
Civil Twilight 6:36 AM EST 4:45 PM EST
Nautical Twilight 6:00 AM EST 5:20 PM EST
Astronomical Twilight 5:26 AM EST 5:54 PM EST
Moon 10:50 PM EST (12/16) 10:46 AM EST (12/16)
Length of Visible Light 10h 09m
Length of Day
9h 04m
Waning Gibbous, 65% of the Moon is Illuminated
Dec 16
Waning Gibbous
Dec 17
Last Quarter
Dec 24
New
Jan 1
First Quarter
Jan 9
Full

Hourly Weather History & Observations

Time (EST) Temp. Windchill Dew Point Humidity Pressure Visibility Wind Dir Wind Speed Gust Speed Precip Events Conditions
12:56 AM 52.0 °F - 48.0 °F 86% 29.68 in 10.0 mi SSW 11.5 mph 19.6 mph N/A   Overcast
1:56 AM 52.0 °F - 48.0 °F 86% 29.67 in 10.0 mi WSW 6.9 mph - N/A   Partly Cloudy
2:56 AM 51.1 °F - 46.9 °F 86% 29.66 in 10.0 mi SW 6.9 mph - N/A   Clear
3:56 AM 51.1 °F - 46.9 °F 86% 29.65 in 10.0 mi WSW 5.8 mph - N/A   Clear
4:56 AM 48.0 °F - 41.0 °F 77% 29.72 in 7.0 mi WNW 27.6 mph 40.3 mph 0.01 in Rain Light Rain
5:56 AM 46.9 °F - 39.0 °F 74% 29.75 in 10.0 mi West 13.8 mph 21.9 mph 0.02 in   Mostly Cloudy
6:56 AM 46.4 °F 38.7 °F 33.8 °F 62% 29.77 in 10.0 mi West 20.7 mph 34.5 mph N/A   Clear
6:57 AM 46.4 °F 38.5 °F 33.8 °F 62% 29.77 in 10.0 mi West 21.9 mph 34.5 mph N/A   Scattered Clouds
7:56 AM 45.0 °F 36.4 °F 30.9 °F 58% 29.86 in 10.0 mi West 23.0 mph 40.3 mph N/A   Scattered Clouds
8:56 AM 44.1 °F 36.8 °F 28.9 °F 55% 29.91 in 10.0 mi West 16.1 mph 27.6 mph N/A   Partly Cloudy
9:56 AM 44.6 °F 36.9 °F 28.4 °F 53% 29.89 in 10.0 mi West 18.4 mph 28.8 mph N/A   Partly Cloudy
10:56 AM 46.0 °F 38.5 °F 28.9 °F 51% 29.93 in 10.0 mi West 19.6 mph 29.9 mph N/A   Clear
11:56 AM 46.9 °F - 28.9 °F 50% 29.93 in 10.0 mi West 17.3 mph 29.9 mph N/A   Scattered Clouds
12:56 PM 48.0 °F - 28.0 °F 46% 29.95 in 10.0 mi West 17.3 mph 21.9 mph N/A   Scattered Clouds
1:56 PM 48.0 °F - 27.0 °F 44% 29.99 in 10.0 mi WNW 17.3 mph 27.6 mph N/A   Mostly Cloudy
2:12 PM 48.2 °F - 26.6 °F 43% 29.96 in 10.0 mi West 19.6 mph 25.3 mph N/A   Mostly Cloudy
2:56 PM 46.4 °F 39.5 °F 26.6 °F 46% 29.97 in 10.0 mi WNW 17.3 mph 20.7 mph N/A   Mostly Cloudy
3:56 PM 45.0 °F 39.3 °F 26.1 °F 48% 30.04 in 10.0 mi West 11.5 mph 23.0 mph N/A   Mostly Cloudy
4:56 PM 42.1 °F 38.4 °F 26.1 °F 53% 30.04 in 10.0 mi West 5.8 mph - N/A   Clear
5:56 PM 39.9 °F 34.5 °F 28.0 °F 63% 30.07 in 10.0 mi West 8.1 mph - N/A   Clear
6:56 PM 39.9 °F 33.9 °F 28.9 °F 65% 30.09 in 10.0 mi West 9.2 mph - N/A   Clear
7:56 PM 39.2 °F 34.2 °F 28.4 °F 65% 30.04 in 10.0 mi West 6.9 mph - N/A   Clear
8:56 PM 37.0 °F 31.6 °F 28.9 °F 73% 30.10 in 10.0 mi West 6.9 mph - N/A   Clear
9:56 PM 37.0 °F 31.6 °F 28.9 °F 73% 30.09 in 10.0 mi West 6.9 mph - N/A   Mostly Cloudy
10:56 PM 36.0 °F 30.3 °F 28.9 °F 76% 30.10 in 10.0 mi WSW 6.9 mph - N/A   Clear
11:56 PM 35.1 °F 31.0 °F 28.0 °F 76% 30.08 in 10.0 mi West 4.6 mph - N/A   Clear